Date,TemperatureHighF,TemperatureAvgF,TemperatureLowF,DewpointHighF,DewpointAvgF,DewpointLowF,HumidityHigh,HumidityAvg,HumidityLow,PressureMaxIn,PressureMinIn,WindSpeedMaxMPH,WindSpeedAvgMPH,GustSpeedMaxMPH,PrecipitationSumIn
2013-2-1,26.6,20.6,12.1,22.1,10.3,4.0,93,65,50,30.38,29.83,12,1,13,0.00
2013-2-2,24.3,17.2,9.4,21.5,11.2,3.0,93,77,64,30.39,30.04,5,0,5,0.00
2013-2-3,31.2,25.9,20.8,26.8,22.5,15.3,94,87,69,30.04,29.83,9,0,10,0.00
2013-2-4,33.0,26.2,18.8,25.0,16.6,11.2,86,67,51,30.10,29.89,10,1,12,0.00
2013-2-5,33.8,31.3,28.6,30.5,27.9,23.4,94,87,72,29.95,29.86,3,0,4,0.00
2013-2-6,36.5,32.3,27.2,30.8,26.5,19.4,92,79,66,30.36,29.94,6,0,7,0.00
2013-2-7,34.5,30.3,26.3,27.6,22.8,18.6,85,73,65,30.44,30.21,8,2,11,0.00
2013-2-8,36.0,32.1,29.2,33.7,28.9,22.2,96,88,73,30.21,29.80,10,1,13,0.00
2013-2-9,35.0,28.9,23.6,23.0,18.1,15.0,79,64,48,30.41,29.93,12,1,16,0.00
2013-2-10,39.1,32.1,24.5,23.5,17.9,13.4,70,56,41,30.47,30.21,7,2,8,0.00
2013-2-11,54.7,41.1,31.4,47.4,35.7,23.5,98,84,36,30.22,29.70,9,2,9,0.18
2013-2-12,50.7,43.9,36.9,32.0,27.7,23.9,66,53,41,29.99,29.82,11,1,13,0.00
2013-2-13,38.9,34.4,31.0,31.5,27.9,24.6,96,77,66,29.94,29.67,7,1,7,0.00
2013-2-14,44.1,35.8,26.8,32.1,29.1,25.0,97,78,56,30.01,29.78,4,0,5,0.19
2013-2-15,51.6,39.6,32.8,36.2,31.3,26.3,97,74,50,30.04,29.93,7,0,7,0.16
2013-2-16,34.4,30.8,25.1,32.1,25.3,16.6,97,81,62,30.00,29.87,7,0,7,0.00
2013-2-19,43.9,36.8,31.5,37.9,29.2,18.7,94,75,53,29.97,29.68,10,2,13,0.01
2013-2-20,32.5,26.1,20.5,21.6,13.9,8.8,67,59,51,30.17,29.85,11,2,13,0.00
2013-2-21,33.7,25.2,19.4,16.7,14.0,9.9,72,62,47,30.36,30.12,11,1,11,0.00
2013-2-22,28.0,26.1,23.4,27.0,21.5,15.6,96,83,69,30.40,30.21,8,2,8,0.00
2013-2-23,42.6,34.2,28.0,39.3,32.8,27.0,98,95,86,30.21,29.84,5,1,5,0.03
2013-2-24,45.4,35.7,26.3,35.9,28.4,18.9,98,76,46,30.13,29.81,12,1,12,0.00
2013-2-25,41.7,33.0,25.1,24.5,22.1,19.3,80,65,47,30.24,30.12,5,0,5,0.00
2013-2-26,38.4,33.7,29.2,37.9,29.8,22.5,98,86,71,30.22,29.65,17,3,17,0.68
2013-2-27,51.2,41.1,33.6,43.8,35.5,32.5,98,82,56,29.70,29.56,11,1,11,0.07
2013-2-28,41.5,37.6,32.3,34.8,28.9,25.6,84,71,58,29.73,29.63,14,0,14,0.00